Regional Weather Roundup
Issued by NWS Raleigh/Durham, NC

Current Version | Previous Version | Text Only | Print | Product List | Glossary On
Versions: 1 2 3 4 5 6 7 8 9 10 11 12 13 14 15 16 17 18 19 20 21 22 23 24 25 26 27 28
794 ASUS42 KRAH 221610 RWRRAH NORTH CAROLINA WEATHER ROUNDUP NATIONAL WEATHER SERVICE RALEIGH NC 1200 PM EDT FRI MAY 22 2015 NOTE: "FAIR" INDICATES FEW OR NO CLOUDS BELOW 12,000 FEET WITH NO SIGNIFICANT WEATHER AND/OR OBSTRUCTIONS TO VISIBILITY. NCZ001-053-055-056-065-067-221700- WESTERN NORTH CAROLINA CITY SKY/WX TMP DP RH WIND PRES REMARKS ASHEVILLE SUNNY 63 37 38 NW10G17 30.27R JEFFERSON SUNNY 57 28 33 CALM 30.26R MORGANTON SUNNY 68 36 30 N5 30.28R HICKORY SUNNY 68 34 28 N7 30.23S RUTHERFORDTON SUNNY 69 38 32 E6 30.24S MOUNT AIRY SUNNY 67 36 30 NW5G16 30.24S BOONE SUNNY 58 27 30 NW13G20 30.27R $$ NCZ021-022-025-041-071-084-088-221700- CENTRAL NORTH CAROLINA CITY SKY/WX TMP DP RH WIND PRES REMARKS CHARLOTTE SUNNY 68 35 29 N6G21 30.23S GREENSBORO MOSUNNY 66 39 37 CALM 30.21S WINSTON-SALEM SUNNY 65 39 38 VRB5 30.23S RALEIGH-DURHAM MOSUNNY 66 44 45 NE9 30.20F FORT BRAGG SUNNY 68 47 46 N8 30.18S FAYETTEVILLE MOSUNNY 69 47 45 N12 30.19S BURLINGTON SUNNY 67 43 41 VRB5 30.21S LAURINBURG SUNNY 70 45 40 N9 30.20S $$ NCZ011-015-027-028-043-044-047-080-103-221700- NORTHEASTERN NORTH CAROLINA CITY SKY/WX TMP DP RH WIND PRES REMARKS ROCKY MT-WILSO SUNNY 69 43 38 NW13 30.19R GREENVILLE SUNNY 68 46 45 NE9G18 30.19S WASHINGTON SUNNY N/A N/A N/A N8 30.18R ELIZABETH CITY SUNNY 67 47 48 VRB7 30.15R MANTEO SUNNY 65 49 57 N9G16 30.16R CAPE HATTERAS MOSUNNY 65 52 62 VRB7 30.16R $$ NCZ078-087-090-091-093-098-101-221700- SOUTHEASTERN NORTH CAROLINA CITY SKY/WX TMP DP RH WIND PRES REMARKS LUMBERTON SUNNY 71 48 43 N6 30.19R GOLDSBORO MOSUNNY 67 47 48 N2 30.16S KINSTON MOSUNNY 55 48 76 N8 30.19R KENANSVILLE SUNNY 67 47 48 N7 30.19S NEW BERN SUNNY 68 51 54 N8 30.19R CHERRY POINT MOSUNNY 68 51 54 N7 30.18R BEAUFORT PTSUNNY 68 52 56 NW15 30.17R JACKSONVILLE MOSUNNY 67 51 56 N10 30.17R WILMINGTON MOSUNNY 69 54 58 NE8 30.17S $$

USA.gov is the U.S. government's official web portal to all federal, state and local government web resources and services.